Time,TemperatureF,DewpointF,PressureIn,WindDirection,WindDirectionDegrees,WindSpeedMPH,WindSpeedGustMPH,Humidity,HourlyPrecipIn,Conditions,Clouds,dailyrainin,SoftwareType,DateUTC
2013-09-13 00:11:00,64.0,37.0,-100.00,NE,45,3.0,6.0,36,-99.99,,,-99.99,,2013-09-13 07:11:00,
2013-09-13 00:22:00,64.0,36.0,-100.00,NE,45,1.0,3.0,36,-99.99,,,-99.99,,2013-09-13 07:22:00,
2013-09-13 00:42:00,63.0,35.0,-100.00,NE,45,1.0,4.0,34,-99.99,,,-99.99,,2013-09-13 07:42:00,
2013-09-13 03:42:00,63.0,32.0,-100.00,NE,45,1.0,3.0,31,-99.99,,,-99.99,,2013-09-13 10:42:00,
2013-09-13 10:23:00,71.0,30.0,-100.00,NE,45,3.0,9.0,22,-99.99,,,-99.99,,2013-09-13 17:23:00,
2013-09-13 10:43:00,71.0,30.0,-100.00,NE,45,6.0,14.0,22,-99.99,,,-99.99,,2013-09-13 17:43:00,
2013-09-13 10:53:00,71.0,29.0,-100.00,NE,45,6.0,13.0,21,-99.99,,,-99.99,,2013-09-13 17:53:00,
2013-09-13 11:12:00,71.0,29.0,-100.00,NE,45,8.0,18.0,21,-99.99,,,-99.99,,2013-09-13 18:12:00,
2013-09-13 11:22:00,71.0,28.0,-100.00,North,0,8.0,16.0,20,-99.99,,,-99.99,,2013-09-13 18:22:00,
2013-09-13 11:42:00,72.0,29.0,-100.00,NE,45,4.0,14.0,20,-99.99,,,-99.99,,2013-09-13 18:42:00,
2013-09-13 11:52:00,72.0,26.0,-100.00,North,0,9.0,17.0,18,-99.99,,,-99.99,,2013-09-13 18:52:00,
2013-09-13 12:11:00,73.0,27.0,-100.00,North,0,5.0,19.0,18,-99.99,,,-99.99,,2013-09-13 19:11:00,
2013-09-13 12:22:00,72.0,25.0,-100.00,NE,45,9.0,16.0,17,-99.99,,,-99.99,,2013-09-13 19:22:00,
2013-09-13 12:42:00,72.0,26.0,-100.00,North,0,6.0,13.0,18,-99.99,,,-99.99,,2013-09-13 19:42:00,
2013-09-13 12:52:00,71.0,28.0,-100.00,North,0,4.0,10.0,20,-99.99,,,-99.99,,2013-09-13 19:52:00,
2013-09-13 13:11:00,71.0,27.0,-100.00,NE,45,6.0,13.0,19,-99.99,,,-99.99,,2013-09-13 20:11:00,
2013-09-13 13:21:00,71.0,27.0,-100.00,North,0,8.0,15.0,19,-99.99,,,-99.99,,2013-09-13 20:21:00,
2013-09-13 13:42:00,72.0,25.0,-100.00,North,0,6.0,15.0,17,-99.99,,,-99.99,,2013-09-13 20:42:00,
2013-09-13 13:52:00,72.0,28.0,-100.00,NE,45,4.0,8.0,19,-99.99,,,-99.99,,2013-09-13 20:52:00,
2013-09-13 14:11:00,73.0,28.0,-100.00,NE,45,2.0,10.0,19,-99.99,,,-99.99,,2013-09-13 21:11:00,
2013-09-13 14:21:00,72.0,30.0,-100.00,North,0,4.0,9.0,21,-99.99,,,-99.99,,2013-09-13 21:21:00,
2013-09-13 14:44:00,71.0,29.0,-100.00,East,90,5.0,9.0,21,-99.99,,,-99.99,,2013-09-13 21:44:00,
2013-09-13 14:54:00,72.0,30.0,-100.00,SW,225,4.0,11.0,21,-99.99,,,-99.99,,2013-09-13 21:54:00,
2013-09-13 15:13:00,74.0,33.0,-100.00,West,270,8.0,13.0,22,-99.99,,,-99.99,,2013-09-13 22:13:00,
2013-09-13 15:24:00,74.0,33.0,-100.00,West,270,7.0,14.0,22,-99.99,,,-99.99,,2013-09-13 22:24:00,
2013-09-13 15:43:00,74.0,34.0,-100.00,West,270,8.0,14.0,23,-99.99,,,-99.99,,2013-09-13 22:43:00,
2013-09-13 15:53:00,76.0,36.0,-100.00,West,270,4.0,11.0,24,-99.99,,,-99.99,,2013-09-13 22:53:00,
2013-09-13 16:12:00,73.0,34.0,-100.00,North,0,5.0,12.0,24,-99.99,,,-99.99,,2013-09-13 23:12:00,
2013-09-13 16:22:00,74.0,34.0,-100.00,NE,45,5.0,11.0,23,-99.99,,,-99.99,,2013-09-13 23:22:00,
2013-09-13 16:42:00,73.0,33.0,-100.00,North,0,7.0,11.0,23,-99.99,,,-99.99,,2013-09-13 23:42:00,
2013-09-13 16:52:00,73.0,34.0,-100.00,NE,45,8.0,12.0,24,-99.99,,,-99.99,,2013-09-13 23:52:00,
2013-09-13 17:11:00,72.0,33.0,-100.00,NE,45,8.0,12.0,24,-99.99,,,-99.99,,2013-09-14 00:11:00,
2013-09-13 17:22:00,71.0,35.0,-100.00,NE,45,8.0,12.0,26,-99.99,,,-99.99,,2013-09-14 00:22:00,
2013-09-13 17:42:00,72.0,34.0,-100.00,North,0,4.0,13.0,25,-99.99,,,-99.99,,2013-09-14 00:42:00,
2013-09-13 17:52:00,72.0,36.0,-100.00,NE,45,6.0,12.0,27,-99.99,,,-99.99,,2013-09-14 00:52:00,
2013-09-13 18:11:00,72.0,36.0,-100.00,NE,45,6.0,12.0,27,-99.99,,,-99.99,,2013-09-14 01:11:00,
2013-09-13 18:21:00,72.0,39.0,-100.00,NE,45,4.0,12.0,31,-99.99,,,-99.99,,2013-09-14 01:21:00,
2013-09-13 18:42:00,71.0,40.0,-100.00,NE,45,5.0,11.0,33,-99.99,,,-99.99,,2013-09-14 01:42:00,
2013-09-13 18:52:00,69.0,41.0,-100.00,NE,45,8.0,11.0,36,-99.99,,,-99.99,,2013-09-14 01:52:00,
2013-09-13 19:12:00,69.0,42.0,-100.00,NE,45,6.0,10.0,37,-99.99,,,-99.99,,2013-09-14 02:12:00,
2013-09-13 19:22:00,68.0,42.0,-100.00,NE,45,3.0,7.0,39,-99.99,,,-99.99,,2013-09-14 02:22:00,
2013-09-13 19:42:00,68.0,42.0,-100.00,NE,45,2.0,5.0,40,-99.99,,,-99.99,,2013-09-14 02:42:00,
2013-09-13 19:52:00,67.0,46.0,-100.00,NE,45,2.0,4.0,47,-99.99,,,-99.99,,2013-09-14 02:52:00,
2013-09-13 20:11:00,66.0,46.0,-100.00,NE,45,1.0,3.0,48,-99.99,,,-99.99,,2013-09-14 03:11:00,
2013-09-13 20:22:00,66.0,47.0,-100.00,NE,45,0.0,2.0,50,-99.99,,,-99.99,,2013-09-14 03:22:00,
2013-09-13 20:44:00,65.0,47.0,-100.00,NE,45,1.0,1.0,51,-99.99,,,-99.99,,2013-09-14 03:44:00,
2013-09-13 20:54:00,65.0,46.0,-100.00,West,270,0.0,2.0,51,-99.99,,,-99.99,,2013-09-14 03:54:00,
2013-09-13 21:14:00,65.0,47.0,-100.00,North,0,0.0,2.0,52,-99.99,,,-99.99,,2013-09-14 04:14:00,
2013-09-13 21:24:00,64.0,47.0,-100.00,North,0,0.0,1.0,53,-99.99,,,-99.99,,2013-09-14 04:24:00,
2013-09-13 21:43:00,64.0,47.0,-100.00,North,0,1.0,3.0,53,-99.99,,,-99.99,,2013-09-14 04:43:00,
2013-09-13 21:54:00,64.0,47.0,-100.00,NE,45,1.0,3.0,53,-99.99,,,-99.99,,2013-09-14 04:54:00,
2013-09-13 22:13:00,65.0,47.0,-100.00,North,0,2.0,3.0,52,-99.99,,,-99.99,,2013-09-14 05:13:00,
2013-09-13 22:22:00,64.0,46.0,-100.00,North,0,1.0,3.0,52,-99.99,,,-99.99,,2013-09-14 05:22:00,
2013-09-13 22:43:00,64.0,46.0,-100.00,North,0,1.0,3.0,52,-99.99,,,-99.99,,2013-09-14 05:43:00,
2013-09-13 22:52:00,63.0,46.0,-100.00,NE,45,0.0,2.0,55,-99.99,,,-99.99,,2013-09-14 05:52:00,
2013-09-13 23:12:00,63.0,46.0,-100.00,SE,135,0.0,1.0,54,-99.99,,,-99.99,,2013-09-14 06:12:00,
2013-09-13 23:21:00,63.0,46.0,-100.00,NE,45,0.0,2.0,54,-99.99,,,-99.99,,2013-09-14 06:21:00,
2013-09-13 23:42:00,63.0,46.0,-100.00,North,0,1.0,1.0,54,-99.99,,,-99.99,,2013-09-14 06:42:00,